CDT,Max TemperatureF,Mean TemperatureF,Min TemperatureF,Max Dew PointF,MeanDew PointF,Min DewpointF,Max Humidity, Mean Humidity, Min Humidity, Max Sea Level PressureIn, Mean Sea Level PressureIn, Min Sea Level PressureIn, Max VisibilityMiles, Mean VisibilityMiles, Min VisibilityMiles, Max Wind SpeedMPH, Mean Wind SpeedMPH, Max Gust SpeedMPH,PrecipitationIn, CloudCover, Events, WindDirDegrees
2014-4-1,71,58,44,55,41,28,93,58,36,30.07,29.98,29.87,10,9,0,13,6,17,0.01,4,,92
2014-4-2,75,64,53,63,59,48,94,76,61,29.90,29.80,29.72,10,10,8,18,9,26,0.00,5,,168
2014-4-3,80,66,48,64,59,39,82,71,48,29.82,29.68,29.60,10,10,9,23,13,30,0.18,6,Thunderstorm,196
2014-4-4,53,46,39,39,30,27,76,55,41,30.15,30.03,29.83,10,10,10,21,12,30,0.03,4,,321
2014-4-5,60,48,35,32,29,25,81,52,25,30.19,30.10,30.00,10,10,9,10,4,,0.00,0,,94
2014-4-6,53,50,46,43,37,32,87,62,47,30.08,29.93,29.79,10,10,8,15,6,18,0.08,4,,94
2014-4-7,60,51,42,45,40,37,87,69,42,29.87,29.79,29.75,10,9,5,14,6,20,0.38,5,,306
2014-4-8,57,50,42,43,34,25,76,57,31,30.12,29.97,29.85,10,10,9,26,8,38,0.04,3,Thunderstorm,324
2014-4-9,71,52,33,36,31,27,81,47,24,30.20,30.08,29.95,10,10,10,15,5,22,0.00,0,,197
2014-4-10,80,70,59,50,47,36,56,38,30,29.97,29.90,29.84,10,10,10,23,13,30,0.00,2,,224
2014-4-11,80,66,53,55,52,46,82,61,42,30.09,30.00,29.95,10,10,10,13,3,18,0.00,1,,178
2014-4-12,78,68,57,57,54,52,82,62,44,29.99,29.87,29.76,10,10,10,21,10,28,0.00,2,,180
2014-4-13,73,62,48,57,54,43,88,70,53,29.76,29.68,29.54,10,10,5,25,15,40,0.33,3,Thunderstorm,199
2014-4-14,46,40,33,43,30,19,87,71,48,30.19,29.99,29.76,10,9,2,17,12,28,0.33,7,,347
2014-4-15,55,40,26,28,24,21,80,53,26,30.26,30.18,30.11,10,10,10,12,2,16,0.00,0,,228
2014-4-16,62,50,39,32,29,27,65,47,27,30.12,30.07,29.98,10,10,10,21,10,29,0.00,0,,168
2014-4-17,66,52,39,39,35,28,71,51,30,30.26,30.20,30.10,10,10,10,15,5,20,0.00,2,,118
2014-4-18,71,58,44,43,40,37,76,51,29,30.30,30.23,30.15,10,10,9,8,5,,0.00,2,,77
2014-4-19,75,62,48,48,44,39,76,53,34,30.26,30.19,30.13,10,10,10,12,5,16,0.00,0,,167
2014-4-20,75,65,55,52,49,46,77,57,38,30.20,30.14,30.05,10,10,10,14,6,22,0.00,2,,181
2014-4-21,66,62,57,59,56,52,94,81,60,30.07,30.04,29.98,10,9,1,12,4,,0.18,6,,230
2014-4-22,71,62,53,55,43,34,94,55,25,30.11,30.05,29.99,10,9,1,13,5,16,0.00,0,,21
2014-4-23,78,63,48,48,43,36,71,46,30,30.02,29.93,29.83,10,10,10,15,8,22,0.00,0,,148
2014-4-24,71,62,51,57,50,43,88,65,46,29.92,29.78,29.67,10,10,5,28,13,37,0.03,4,Thunderstorm,218
2014-4-25,75,57,39,46,39,36,93,51,24,30.06,29.97,29.91,10,10,10,12,5,17,0.00,0,,201
2014-4-26,80,66,53,61,48,37,72,49,37,29.91,29.82,29.68,10,10,10,20,9,30,0.01,1,,168
2014-4-27,78,69,60,66,62,52,83,71,61,29.68,29.54,29.41,10,10,7,20,13,28,0.10,3,Thunderstorm,181
2014-4-28,69,61,51,54,44,36,88,56,30,29.64,29.54,29.41,10,10,6,21,11,32,0.00,0,,233
2014-4-29,53,48,44,41,36,34,76,61,50,29.89,29.73,29.61,10,10,9,21,10,30,0.00,5,,266
2014-4-30,55,48,39,37,34,30,76,59,41,30.06,30.00,29.89,10,10,10,16,10,21,0.00,7,,305